Regional Weather Roundup
Issued by NWS Portland, ME

Home | Current Version | Previous Version | Text Only | Print | Product List | Glossary On
Versions: 1 2 3 4 5 6 7 8 9 10 11 12 13 14 15 16 17 18 19 20 21 22 23 24 25 26 27 28 29 30 31 32 33 34 35 36 37 38 39 40 41 42 43 44 45 46 47 48 49 50
000
ASUS41 KGYX 101910
RWRGYX
WEATHER ROUNDUP FOR MAINE AND NEW HAMPSHIRE
NATIONAL WEATHER SERVICE GRAY ME
300 PM EDT THU JUL 10 2014

MEZ002-005-006-010-012-015-018-020-021-024-026-027-029-102000-
MAINE

CITY           SKY/WX    TMP DP  RH WIND       PRES   REMARKS
PORTLAND       PTSUNNY   78  55  44 W12       30.06S
SANFORD        PTSUNNY   79  54  41 W12       30.08S
BAR HARBOR     PTSUNNY   81  55  41 S9G17     30.03
WISCASSET      PTSUNNY   80  57  45 S5        30.06S
ROCKLAND       MOSUNNY   77  64  65 S9        30.04R
FRYEBURG       PTSUNNY   80  51  36 VRB3      30.07S
LEWISTONAUBURN PTSUNNY   77  54  44 NW7       30.07F
AUGUSTA        PTSUNNY   77  50  38 NW10      30.07S
WATERVILLE     PTSUNNY   75  52  43 SW9       30.03R
BANGOR         MOSUNNY   79  51  37 W9        30.04R
GREENVILLE       N/A     69  48  47 NW8G21    30.06S
MILLINOCKET    PTSUNNY   75  50  41 NW12G20   30.05R
HOULTON        PTSUNNY   76  52  43 W12       29.99R
PRESQUE ISLE   CLOUDY    72  46  40 SW14G22   30.02R
FRENCHVILLE    PTSUNNY   68  47  46 W20G26    30.01R
CARIBOU        CLOUDY    70  50  49 W12G21    30.00R
$$

NHZ002-005-008-009-011-012-014-102000-
NEW HAMPSHIRE

CITY           SKY/WX    TMP DP  RH WIND       PRES   REMARKS
PORTSMOUTH     PTSUNNY   80  53  39 W12       30.07F
ROCHESTER      CLOUDY    76  53  44 VRB6      30.08S
NASHUA         CLOUDY    79  53  40 W8        30.10F
MANCHESTER     CLOUDY    78  52  40 VRB7      30.08S
CONCORD        CLOUDY    77  52  41 W7        30.09F
LACONIA        PTSUNNY   77  50  38 SW14      30.08F
PLYMOUTH       FAIR      76  49  38 W8        30.09F
BERLIN         NOT AVBL
WHITEFIELD     SUNNY     73  49  42 W7        30.12S
JAFFREY        PTSUNNY   74  50  42 CALM      30.14F
LEBANON        PTSUNNY   79  47  32 N7        30.10S
MT WASHINGTON  PTSUNNY   46  43  87 W17         N/A
$$

VTZ005-007-008-102000-
VERMONT

CITY           SKY/WX    TMP DP  RH WIND       PRES   REMARKS
ST JOHNSBURY     N/A     73  46  38 MISG      30.10S
MONTPELIER     MOSUNNY   72  49  44 NW10      30.17S
BURLINGTON     MOSUNNY   76  47  35 W9        30.12F
$$

MAZ007-012-024-CTZ003-RIZ002-NYZ038-NYZ072-102000-
SOUTHERN NEW ENGLAND AND NY

CITY           SKY/WX    TMP DP  RH WIND       PRES   REMARKS
BOSTON         CLOUDY    80  52  37 NW7       30.09S
WORCESTER      CLOUDY    73  53  49 W8        30.14S
NANTUCKET      CLOUDY    71  67  87 S5        30.10S
PROVIDENCE     CLOUDY    80  59  48 NW6       30.11R
HARTFORD       PTSUNNY   82  58  43 SE8       30.10F
ALBANY         MOSUNNY   78  50  37 W9        30.12F
NEW YORK CITY  MOSUNNY   80  59  48 NE8       30.09F
$$

ANZ081-ANZ082-ANZ150-NHZ014-MEZ023>029-102000-
COASTAL MARINE OBSERVATIONS

STATION/POSITION TIME  TEMP    WIND        PRES    WAVE
                       AIR SEA DIR/SP/G            HT/PER
                 (UTC) (F)     (DEG/KT/KT) (MB)    (FT/S)
MOUNT DESERT ROC 1900   60                 1017.6R
MATINICUS ROCK   1800          240/ 12/ 12 1017.8R
PORTLAND WX BUOY 1900   64 59  190/ 10/ 12 1018.0F   2/ 8
WELLS            1900   79 53  270/  7/ 11 1017.4R
ISLE OF SHOALS   1800   74     270/  9/  9 1018.3S
JEFFREYS LEDGE   1900      66                N/A     3/ 8
CASHES LEDGE BUO 1900   64 62  260/  8/ 10 1017.8R   4/ 8
$$

.............KEY..............
   WCI - WIND CHILL
   TC  - TEMPERATURE IN CELSIUS
   VSB - VISIBILITY IN MILES
   HX  - HEAT INDEX
   FAIR- INDICATES FEW OR NO CLOUDS BELOW 12,000 FT, WITH NO
         SIGNIFICANT WEATHER AND/OR OBSTRUCTIONS TO VISIBILITY.




USA.gov is the U.S. government's official web portal to all federal, state and local government web resources and services.